This demonstration page uses our WeatherBlox Daily Observations layout. Learn more.

39.51506, -84.39828

Hourly Observations for January 25, 2021

Temp ( °F °C ) Dew Point ( °F °C ) Humidity (%) Winds ( mph kmh ) Pressure ( in mb ) Visibility ( mi km ) Precip ( " mm )
12:15 am 00:15 Cloudy with Mist and Fog 32 0 N/A N/A Calm 30.12 1020 3.5 5.63269 0 0
12:35 am 00:35 Cloudy with Mist and Fog 32 0 N/A N/A Calm 30.12 1020 3.5 5.63269 0 0
12:55 am 00:55 Cloudy with Mist and Fog 32 0 N/A N/A Calm 30.12 1020 3 4.82802 0 0
1:15 am 01:15 Cloudy with Mist and Fog 30 -1 N/A N/A NE 3 6 30.1 1019 3.5 5.63269 0 0
1:35 am 01:35 Cloudy with Mist and Fog 30 -1 N/A N/A NE 5 7 30.1 1019 3 4.82802 0 0
1:55 am 01:55 Cloudy with Mist and Fog 30 -1 N/A N/A Calm 30.11 1020 3.5 5.63269 0 0
2:15 am 02:15 Cloudy with Mist and Fog 30 -1 N/A N/A Calm 30.12 1020 4 6.43736 0 0
2:35 am 02:35 Cloudy with Mist and Fog 31 -0.6 31 -0.6 100 100 WNW 3 6 30.15 1021 4 6.43736 0 0
2:55 am 02:55 Cloudy with Mist and Fog 31 -0.6 31 -0.7 99 99 N 5 7 30.15 1021 4 6.43736 0 0
3:15 am 03:15 Cloudy with Mist and Fog 31 -0.7 30 -0.9 99 99 NNE 5 7 30.15 1021 4 6.43736 0 0
3:35 am 03:35 Cloudy with Mist and Fog 31 -0.6 31 -0.8 99 99 Calm 30.16 1021 4 6.43736 0 0
3:55 am 03:55 Cloudy with Mist and Fog 31 -0.5 31 -0.8 98 98 NNE 3 6 30.14 1021 5 8.0467 0 0
4:15 am 04:15 Cloudy with Mist and Fog 31 -0.5 30 -0.9 97 97 NNE 6 9 30.12 1020 5 8.0467 0 0
4:35 am 04:35 Cloudy with Mist and Fog 31 -0.5 30 -1 96 96 NE 5 7 30.12 1020 5 8.0467 0 0
4:55 am 04:55 Cloudy with Mist and Fog 31 -0.5 30 -1.1 96 96 NE 5 7 30.12 1020 7 11.26538 0 0
5:15 am 05:15 Cloudy with Mist and Fog 31 -0.5 30 -1.2 95 95 NE 10 17 30.11 1020 7 11.26538 0 0
5:35 am 05:35 Cloudy with Mist and Fog 31 -0.4 30 -1.3 94 94 NE 8 13 30.11 1020 7 11.26538 0 0
5:55 am 05:55 Cloudy with Mist and Fog 31 -0.5 30 -1.3 94 94 ENE 7 11 30.09 1019 7 11.26538 0 0
6:15 am 06:15 Cloudy with Mist and Fog 31 -0.4 30 -1.3 94 94 NE 12 19 30.1 1019 7 11.26538 0 0
6:35 am 06:35 Cloudy 31 -0.5 29 -1.8 91 91 ENE 7 11 30.11 1020 7 11.26538 0 0
6:55 am 06:55 Cloudy 31 -0.6 29 -1.6 93 93 E 8 13 30.11 1020 7 11.26538 0 0
7:15 am 07:15 Cloudy 31 -0.6 29 -1.7 92 92 E 7 11 30.08 1019 7 11.26538 0 0
7:35 am 07:35 Cloudy with Mist and Fog 31 -0.8 29 -1.7 94 94 ENE 9 15 30.07 1018 7 11.26538 0 0
7:55 am 07:55 Cloudy with Mist and Fog 31 -0.8 29 -1.7 94 94 E 10 17 30.1 1019 5 8.0467 0 0
8:15 am 08:15 Cloudy with Mist and Fog 31 -0.7 29 -1.9 92 92 E 9 15 30.12 1020 7 11.26538 0 0
8:35 am 08:35 Cloudy with Mist and Fog 31 -0.7 29 -1.9 92 92 E 9 15 30.11 1020 7 11.26538 0 0
8:55 am 08:55 Cloudy with Mist and Fog 31 -0.6 29 -1.9 91 91 E 8 13 30.1 1019 7 11.26538 0 0
9:15 am 09:15 Cloudy with Mist and Fog 31 -0.7 28 -2.1 90 90 E 10 17 30.07 1018 7 11.26538 0 0
9:35 am 09:35 Cloudy with Mist and Fog 31 -0.7 28 -2.1 90 90 ENE 10 17 30.06 1018 7 11.26538 0 0
9:55 am 09:55 Cloudy with Mist and Fog 31 -0.7 28 -2 91 91 ENE 9 15 30.07 1018 7 11.26538 0 0
10:15 am 10:15 Cloudy with Mist and Fog 31 -0.6 28 -2 90 90 E 8 13 30.1 1019 7 11.26538 0 0
10:35 am 10:35 Cloudy with Mist and Fog 31 -0.5 28 -2.1 89 89 E 8 13 30.1 1019 7 11.26538 0 0
10:55 am 10:55 Cloudy with Light Rain 31 -0.6 29 -1.8 92 92 E 10 17 30.07 1018 5 8.0467 0 0
11:15 am 11:15 Cloudy with Light Wintry Mix 31 -0.6 29 -1.6 93 93 E 9 15 30.04 1017 5 8.0467 0 0
11:35 am 11:35 Cloudy with Mist and Fog 31 -0.5 29 -1.6 92 92 E 12 19 30.03 1017 5 8.0467 0 0
11:55 am 11:55 Cloudy with Mist and Fog 31 -0.4 29 -1.6 92 92 NE 8 13 30.03 1017 5 8.0467 0 0
12:15 pm 12:15 Cloudy with Light Rain 31 -0.3 29 -1.5 92 92 NNE 7 11 30.05 1017 5 8.0467 0 0
12:35 pm 12:35 Cloudy with Rain 31 -0.3 30 -1.1 94 94 NE 8 13 30.03 1017 3 4.82802 0.01 0.254
12:55 pm 12:55 Cloudy with Rain 31 -0.3 31 -0.8 96 96 NE 9 15 30 1016 2.5 4.02335 0.05 1.27
1:15 pm 13:15 Cloudy with Light Wintry Mix 32 -0.2 31 -0.5 98 98 NE 8 13 29.99 1015 2 3.21868 0.04 1.016
1:35 pm 13:35 Cloudy with Rain 32 -0.2 31 -0.5 98 98 NE 9 15 29.99 1015 2.5 4.02335 0.06 1.524
1:55 pm 13:55 Cloudy with Light Rain 32 -0.1 31 -0.4 98 98 NE 9 15 29.97 1015 2.5 4.02335 0.08 2.032
2:15 pm 14:15 Cloudy with Light Wintry Mix 32 0 31 -0.3 98 98 NE 9 15 29.96 1014 2.5 4.02335 0.02 0.508
2:35 pm 14:35 Cloudy with Light Wintry Mix 32 0 32 -0.2 99 99 NE 8 13 29.94 1014 2.5 4.02335 0.04 1.016
2:55 pm 14:55 Cloudy with Light Rain 32 0.1 32 -0.1 99 99 ENE 9 15 29.89 1012 3.5 5.63269 0.05 1.27
3:15 pm 15:15 Cloudy with Light Rain 32 0.2 32 0.1 99 99 NNE 6 9 29.87 1012 5 8.0467 0.01 0.254
3:35 pm 15:35 Cloudy 33 0.4 32 0.2 99 99 N 7 11 29.89 1012 7 11.26538 0.01 0.254
3:55 pm 15:55 Cloudy 33 0.5 33 0.3 99 99 NNE 7 11 29.87 1012 7 11.26538 0.01 0.254
4:15 pm 16:15 Cloudy 33 0.6 33 0.4 99 99 NE 3 6 29.87 1012 7 11.26538 0 0
4:35 pm 16:35 Cloudy 33 0.6 33 0.4 99 99 ENE 3 6 29.87 1012 7 11.26538 0 0
4:55 pm 16:55 Cloudy with Mist and Fog 33 0.6 33 0.4 99 99 ENE 3 6 29.88 1012 7 11.26538 0 0
5:15 pm 17:15 Cloudy with Drizzle 33 0.6 33 0.5 99 99 NE 3 6 29.87 1012 2.5 4.02335 0 0
5:35 pm 17:35 Cloudy with Drizzle 34 1 34 1 100 100 NE 6 9 29.85 1011 1.25 2.011675 0 0
5:55 pm 17:55 Cloudy with Drizzle 32 0 N/A N/A NE 10 17 29.82 1010 1.5 2.41401 0 0
6:15 pm 18:15 Cloudy with Drizzle 34 1 N/A N/A NE 9 15 29.83 1010 2.5 4.02335 0 0
6:35 pm 18:35 Cloudy with Drizzle 34 1 N/A N/A NE 9 15 29.83 1010 3 4.82802 0 0
6:55 pm 18:55 Cloudy with Drizzle 34 1 N/A N/A NNE 10 17 29.82 1010 2.5 4.02335 0 0
7:15 pm 19:15 Cloudy with Drizzle 34 1 N/A N/A NE 15 24 29.81 1010 2.5 4.02335 0 0
7:35 pm 19:35 Cloudy with Drizzle 34 1 N/A N/A NE 13 20 29.82 1010 3 4.82802 0 0
7:55 pm 19:55 Cloudy with Drizzle 34 1 N/A N/A NE 12 19 29.82 1010 2 3.21868 0 0
8:15 pm 20:15 Cloudy with Drizzle 34 1 N/A N/A NNE 13 20 29.82 1010 2.5 4.02335 0 0
8:35 pm 20:35 Cloudy with Drizzle 34 1 N/A N/A NE 10 17 29.82 1010 2.5 4.02335 0.01 0.254
8:55 pm 20:55 Cloudy with Light Rain 34 1 N/A N/A NNE 12 19 29.82 1010 2 3.21868 0.01 0.254
9:15 pm 21:15 Cloudy with Drizzle 34 1 N/A N/A NE 10 17 29.8 1009 2.5 4.02335 0 0
9:35 pm 21:35 Cloudy with Drizzle 34 1 N/A N/A NE 9 15 29.82 1010 2.5 4.02335 0 0
11:35 pm 23:35 Cloudy with Drizzle 34 0.9 33 0.8 99 99 ENE 12 19 29.75 1008 7 11.26538 0 0
11:55 pm 23:55 Cloudy with Light Rain 34 1.1 34 1 99 99 ENE 9 15 29.75 1008 5 8.0467 0.02 0.508

Powered by AerisWeather